This demonstration page uses our WeatherBlox Daily Observations layout. Learn more.

Left ArrowRight Arrow

Hourly Observations for March 16, 2020

Temp ( °F °C ) Dew Point ( °F °C ) Humidity (%) Winds ( mph kmh ) Pressure ( in mb ) Visibility ( mi km ) Precip ( " mm )
12:54 am 00:54 Cloudy with Mist and Fog 34 1.1 30 -1.1 85 85 SSE 8 13 30.37 1028 5 8.0467 0 0
1:54 am 01:54 Cloudy with Mist and Fog 34 1.1 31 -0.6 89 89 S 8 13 30.35 1028 6 9.65604 0 0
2:54 am 02:54 Cloudy with Mist and Fog 34 1.1 31 -0.6 89 89 SSE 8 13 30.33 1027 6 9.65604 0 0
3:54 am 03:54 Cloudy with Mist and Fog 34 1.1 31 -0.6 89 89 SE 6 9 30.32 1027 5 8.0467 0 0
4:54 am 04:54 Cloudy with Mist and Fog 34 1.1 32 0 92 92 ESE 5 7 30.3 1026 3 4.82802 0 0
5:54 am 05:54 Cloudy with Mist and Fog 34 1.1 32 0 92 92 SE 5 7 30.29 1026 3 4.82802 0 0
6:54 am 06:54 Cloudy with Mist and Fog 34 1.1 32 0 92 92 SSE 5 7 30.29 1026 6 9.65604 0 0
7:44 am 07:44 Cloudy with Mist and Fog 34 1.1 32 0 92 92 SSE 3 6 30.32 1027 2.5 4.02335 0 0
7:54 am 07:54 Cloudy with Mist and Fog 34 1.1 33 0.6 97 97 SSE 5 7 30.29 1026 2 3.21868 0 0
8:05 am 08:05 Cloudy with Mist and Fog 34 1.1 33 0.6 97 97 S 3 6 30.32 1027 1.5 2.41401 0 0
8:45 am 08:45 Cloudy with Mist and Fog 35 1.7 33 0.6 93 93 S 5 7 30.31 1026 2 3.21868 0 0
8:54 am 08:54 Cloudy with Mist and Fog 35 1.7 33 0.6 93 93 SSE 5 7 30.29 1026 2 3.21868 0 0
9:54 am 09:54 Cloudy with Mist and Fog 36 2.2 34 1.1 93 93 S 7 11 30.29 1026 3 4.82802 0 0
10:54 am 10:54 Cloudy 38 3.3 35 1.7 89 89 SSW 6 9 30.29 1026 7 11.26538 0 0
11:54 am 11:54 Cloudy 40 4.4 35 1.7 83 83 SW 5 7 30.28 1025 10 16.0934 0 0
12:54 pm 12:54 Cloudy 41 5 36 2.2 82 82 WSW 5 7 30.26 1025 10 16.0934 0 0
1:19 pm 13:19 Cloudy 41 5 36 2.2 82 82 WNW 3 6 30.28 1025 10 16.0934 0 0
1:54 pm 13:54 Cloudy 42 5.6 36 2.2 79 79 W 7 11 30.25 1025 10 16.0934 0 0
2:54 pm 14:54 Cloudy 42 5.6 36 2.2 79 79 WNW 5 7 30.24 1024 10 16.0934 0 0
3:54 pm 15:54 Cloudy 42 5.6 37 2.8 82 82 NW 5 7 30.23 1024 10 16.0934 0 0
4:02 pm 16:02 Cloudy 43 6.1 36 2.2 76 76 NNW 10 17 30.23 1024 10 16.0934 0 0
4:54 pm 16:54 Cloudy 42 5.6 35 1.7 76 76 NNW 9 15 30.23 1024 10 16.0934 0 0
5:54 pm 17:54 Cloudy 42 5.6 35 1.7 76 76 N 7 11 30.23 1024 10 16.0934 0 0
6:28 pm 18:28 Cloudy 42 5.6 35 1.7 76 76 NNW 5 7 30.24 1024 10 16.0934 0 0
6:54 pm 18:54 Cloudy 42 5.6 35 1.7 76 76 N 5 7 30.23 1024 10 16.0934 0 0
7:54 pm 19:54 Cloudy 42 5.6 36 2.2 79 79 WNW 3 6 30.24 1024 10 16.0934 0 0
8:54 pm 20:54 Cloudy 42 5.6 36 2.2 79 79 WNW 3 6 30.26 1025 10 16.0934 0 0
9:06 pm 21:06 Cloudy 41 5 36 2.2 82 82 Calm 30.28 1025 10 16.0934 0 0
9:42 pm 21:42 Cloudy 41 5 36 2.2 82 82 Calm 30.29 1026 10 16.0934 0 0
9:52 pm 21:52 Cloudy 41 5 36 2 81 81 NW 3 6 30.3 1026 10 16.0934 0 0
9:54 pm 21:54 Cloudy 41 5 36 2.2 82 82 NNW 5 7 30.29 1026 10 16.0934 0 0
10:41 pm 22:41 Cloudy 41 5 36 2.2 82 82 N 13 20 30.32 1027 10 16.0934 0 0
10:54 pm 22:54 Cloudy 41 5 35 1.7 79 79 N 18 30 30.31 1027 10 16.0934 0 0
11:38 pm 23:38 Cloudy 40 4.4 34 1.1 79 79 N 16 26 30.34 1027 10 16.0934 0 0
11:54 pm 23:54 Cloudy 40 4.4 34 1.1 79 79 N 14 22 30.32 1027 10 16.0934 0 0

Powered by AerisWeather